Weather History for Meacham, OR

Change the Weather History Date:

Thursday, May 15, 2014

  Actual Average Record
Temperature  
Mean Temperature 58 °F -  
Max Temperature 81 °F 57 °F 87 °F (2006)
Min Temperature 36 °F 31 °F 27 °F (1999)
Degree Days  
Heating Degree Days 7    
Growing Degree Days 8 (Base 50)    
Moisture  
Dew Point 42 °F    
Average Humidity 58    
Maximum Humidity 93    
Minimum Humidity 23    
Precipitation  
Precipitation 0.00 in - - ()
Sea Level Pressure  
Sea Level Pressure 30.11 in    
Wind  
Wind Speed 1 mph (North)    
Max Wind Speed 6 mph    
Max Gust Speed -    
Visibility 10 miles    
Events Rain    
Averages and records for this station are not official NWS values.
T = Trace of Precipitation, MM = Missing Value Source: NWS Daily Summary

Daily Weather History Graph

Daily Weather History Graph

Search for Another Location

Airport:

Trip Planner

Search our weather history database for the weather conditions in past years. The results will help you decide how hot, cold, wet, or windy it might be!

Date:

Astronomy

May. 15, 2014 Rise Set
Actual Time 5:22 AM PDT 8:17 PM PDT
Civil Twilight 4:48 AM PDT 8:52 PM PDT
Nautical Twilight 4:04 AM PDT 9:37 PM PDT
Astronomical Twilight 3:11 AM PDT 10:29 PM PDT
Moon 9:30 PM PDT (5/15) 6:14 AM PDT (5/15)
Length of Visible Light 16h 04m
Length of Day
14h 54m
Full, 99% of the Moon is Illuminated
May 15
Full
May 21
Last Quarter
May 28
New
Jun 5
First Quarter
Jun 12
Full

Hourly Weather History & Observations

Time (PDT) Temp. Dew Point Humidity Pressure Visibility Wind Dir Wind Speed Gust Speed Precip Events Conditions
12:56 AM 41.0 °F 39.0 °F 93% 30.22 in 10.0 mi Calm Calm - N/A   Clear
1:56 AM 39.9 °F 37.0 °F 89% 30.20 in 10.0 mi Calm Calm - N/A   Clear
2:56 AM 37.9 °F 36.0 °F 93% 30.20 in 10.0 mi Calm Calm - N/A   Clear
3:56 AM 37.0 °F 34.0 °F 89% 30.19 in 10.0 mi Calm Calm - N/A   Clear
4:56 AM 36.0 °F 34.0 °F 93% 30.19 in 10.0 mi Calm Calm - N/A   Clear
5:56 AM 37.0 °F 34.0 °F 89% 30.20 in 10.0 mi Calm Calm - N/A   Clear
6:56 AM 41.0 °F 37.0 °F 86% 30.19 in 10.0 mi Calm Calm - N/A   Clear
7:56 AM 51.1 °F 45.0 °F 80% 30.17 in 10.0 mi Calm Calm - N/A   Clear
8:56 AM 64.9 °F 45.0 °F 48% 30.14 in 10.0 mi Calm Calm - N/A   Clear
9:56 AM 72.0 °F 43.0 °F 35% 30.12 in 10.0 mi Calm Calm - N/A   Clear
10:56 AM 75.0 °F 41.0 °F 29% 30.12 in 10.0 mi Variable 3.5 mph - N/A   Clear
11:56 AM 77.0 °F 37.9 °F 24% 30.12 in 10.0 mi Variable 3.5 mph - N/A   Clear
12:56 PM 78.1 °F 37.0 °F 23% 30.10 in 10.0 mi Variable 3.5 mph - N/A   Clear
1:56 PM 80.1 °F 39.0 °F 23% 30.09 in 10.0 mi Calm Calm - N/A   Clear
2:56 PM 79.0 °F 42.1 °F 27% 30.07 in 10.0 mi Variable 4.6 mph - N/A   Clear
3:56 PM 78.1 °F 42.1 °F 28% 30.07 in 10.0 mi Variable 5.8 mph - N/A   Clear
4:56 PM 78.1 °F 42.1 °F 28% 30.06 in 10.0 mi Variable 5.8 mph - N/A   Clear
5:56 PM 75.9 °F 41.0 °F 29% 30.05 in 10.0 mi Calm Calm - N/A   Clear
6:56 PM 72.0 °F 44.1 °F 37% 30.04 in 10.0 mi Calm Calm - N/A   Clear
7:56 PM 66.9 °F 48.0 °F 51% 30.04 in 10.0 mi Calm Calm - N/A   Mostly Cloudy
8:56 PM 61.0 °F 50.0 °F 67% 30.03 in 10.0 mi Calm Calm - N/A   Clear
9:56 PM 60.1 °F 51.1 °F 72% 30.03 in 10.0 mi Calm Calm - N/A   Overcast
10:56 PM 57.9 °F 51.1 °F 78% 30.02 in 10.0 mi Calm Calm - 0.00 in Rain Light Rain
11:56 PM 55.9 °F 50.0 °F 80% 30.02 in 10.0 mi Calm Calm - 0.00 in Rain Light Rain